Year,Month,Day,Hour,Minute,Value (Times are PST for temperature in C)
2006,03,20,00,00,1.90
2006,03,20,00,01,1.90
2006,03,20,00,02,2.00
2006,03,20,00,03,2.00
2006,03,20,00,04,2.00
2006,03,20,00,05,2.00
2006,03,20,00,06,2.00
2006,03,20,00,07,2.00
2006,03,20,00,08,2.00
2006,03,20,00,09,2.00
2006,03,20,00,10,2.00
2006,03,20,00,11,2.00
2006,03,20,00,12,2.00
2006,03,20,00,13,2.00
2006,03,20,00,14,2.00
2006,03,20,00,15,2.00
2006,03,20,00,16,2.00
2006,03,20,00,17,2.00
2006,03,20,00,18,2.00
2006,03,20,00,19,1.90
2006,03,20,00,20,1.90
2006,03,20,00,21,1.90
2006,03,20,00,22,2.00
2006,03,20,00,23,2.00
2006,03,20,00,24,2.00
2006,03,20,00,25,2.00
2006,03,20,00,26,2.00
2006,03,20,00,27,2.00
2006,03,20,00,28,2.00
2006,03,20,00,29,2.00
2006,03,20,00,30,2.00
2006,03,20,00,31,2.00
2006,03,20,00,32,2.00
2006,03,20,00,33,2.00
2006,03,20,00,34,1.90
2006,03,20,00,35,1.90
2006,03,20,00,36,1.90
2006,03,20,00,37,1.90
2006,03,20,00,38,1.90
2006,03,20,00,39,1.90
2006,03,20,00,40,1.90
2006,03,20,00,41,1.90
2006,03,20,00,42,1.90
2006,03,20,00,43,1.90
2006,03,20,00,44,1.80
2006,03,20,00,45,1.80
2006,03,20,00,46,1.80
2006,03,20,00,47,1.80
2006,03,20,00,48,1.80
2006,03,20,00,49,1.80
2006,03,20,00,50,1.70
2006,03,20,00,51,1.70
2006,03,20,00,52,1.70
2006,03,20,00,53,1.70
2006,03,20,00,54,1.70
2006,03,20,00,55,1.70
2006,03,20,00,56,1.70
2006,03,20,00,57,1.70
2006,03,20,00,58,1.70
2006,03,20,00,59,1.70
2006,03,20,01,00,1.70
2006,03,20,01,01,1.80
2006,03,20,01,02,1.80
2006,03,20,01,03,1.80
2006,03,20,01,04,1.80
2006,03,20,01,05,1.80
2006,03,20,01,06,1.80
2006,03,20,01,07,1.80
2006,03,20,01,08,1.80
2006,03,20,01,09,1.80
2006,03,20,01,10,1.80
2006,03,20,01,11,1.80
2006,03,20,01,12,1.80
2006,03,20,01,13,1.80
2006,03,20,01,14,1.80
2006,03,20,01,15,1.80
2006,03,20,01,16,1.80
2006,03,20,01,17,1.80
2006,03,20,01,18,1.80
2006,03,20,01,19,1.80
2006,03,20,01,20,1.80
2006,03,20,01,21,1.80
2006,03,20,01,22,1.80
2006,03,20,01,23,1.90
2006,03,20,01,24,1.90
2006,03,20,01,25,2.00
2006,03,20,01,26,2.00
2006,03,20,01,27,2.00
2006,03,20,01,28,1.90
2006,03,20,01,29,1.90
2006,03,20,01,30,1.80
2006,03,20,01,31,1.80
2006,03,20,01,32,1.70
2006,03,20,01,33,1.60
2006,03,20,01,34,1.60
2006,03,20,01,35,1.60
2006,03,20,01,36,1.50
2006,03,20,01,37,1.60
2006,03,20,01,38,1.60
2006,03,20,01,39,1.70
2006,03,20,01,40,1.70
2006,03,20,01,41,1.70
2006,03,20,01,42,1.70
2006,03,20,01,43,1.70
2006,03,20,01,44,1.60
2006,03,20,01,45,1.60
2006,03,20,01,46,1.60
2006,03,20,01,47,1.60
2006,03,20,01,48,1.50
2006,03,20,01,49,1.50
2006,03,20,01,50,1.50
2006,03,20,01,51,1.50
2006,03,20,01,52,1.50
2006,03,20,01,53,1.50
2006,03,20,01,54,1.50
2006,03,20,01,55,1.50
2006,03,20,01,56,1.50
2006,03,20,01,57,1.50
2006,03,20,01,58,1.40
2006,03,20,01,59,1.50
2006,03,20,02,00,1.50
2006,03,20,02,01,1.40
2006,03,20,02,02,1.30
2006,03,20,02,03,1.30
2006,03,20,02,04,1.20
2006,03,20,02,05,1.20
2006,03,20,02,06,1.10
2006,03,20,02,07,1.10
2006,03,20,02,08,1.00
2006,03,20,02,09,1.00
2006,03,20,02,10,1.00
2006,03,20,02,11,0.90
2006,03,20,02,12,0.90
2006,03,20,02,13,0.80
2006,03,20,02,14,0.80
2006,03,20,02,15,0.80
2006,03,20,02,16,0.80
2006,03,20,02,17,0.80
2006,03,20,02,18,0.70
2006,03,20,02,19,0.70
2006,03,20,02,20,0.70
2006,03,20,02,21,0.70
2006,03,20,02,22,0.70
2006,03,20,02,23,0.70
2006,03,20,02,24,0.70
2006,03,20,02,25,0.80
2006,03,20,02,26,0.80
2006,03,20,02,27,0.80
2006,03,20,02,28,0.80
2006,03,20,02,29,0.80
2006,03,20,02,30,0.80
2006,03,20,02,31,0.80
2006,03,20,02,32,0.70
2006,03,20,02,33,0.70
2006,03,20,02,34,0.70
2006,03,20,02,35,0.70
2006,03,20,02,36,0.70
2006,03,20,02,37,0.70
2006,03,20,02,38,0.70
2006,03,20,02,39,0.70
2006,03,20,02,40,0.70
2006,03,20,02,41,0.70
2006,03,20,02,42,0.80
2006,03,20,02,43,0.80
2006,03,20,02,44,0.80
2006,03,20,02,45,0.80
2006,03,20,02,46,0.80
2006,03,20,02,47,0.80
2006,03,20,02,48,0.80
2006,03,20,02,49,0.90
2006,03,20,02,50,0.90
2006,03,20,02,51,0.90
2006,03,20,02,52,0.90
2006,03,20,02,53,0.90
2006,03,20,02,54,0.90
2006,03,20,02,55,0.90
2006,03,20,02,56,0.80
2006,03,20,02,57,0.80
2006,03,20,02,58,0.80
2006,03,20,02,59,0.80
2006,03,20,03,00,0.70
2006,03,20,03,01,0.70
2006,03,20,03,02,0.70
2006,03,20,03,03,0.70
2006,03,20,03,04,0.60
2006,03,20,03,05,0.60
2006,03,20,03,06,0.60
2006,03,20,03,07,0.60
2006,03,20,03,08,0.50
2006,03,20,03,09,0.50
2006,03,20,03,10,0.50
2006,03,20,03,11,0.50
2006,03,20,03,12,0.50
2006,03,20,03,13,0.40
2006,03,20,03,14,0.40
2006,03,20,03,15,0.40
2006,03,20,03,16,0.30
2006,03,20,03,17,0.30
2006,03,20,03,18,0.20
2006,03,20,03,19,0.20
2006,03,20,03,20,0.20
2006,03,20,03,21,0.20
2006,03,20,03,22,0.20
2006,03,20,03,23,0.10
2006,03,20,03,24,0.10
2006,03,20,03,25,0.10
2006,03,20,03,26,0.10
2006,03,20,03,27,0.10
2006,03,20,03,28,0.10
2006,03,20,03,29,0.20
2006,03,20,03,30,0.20
2006,03,20,03,31,0.30
2006,03,20,03,32,0.30
2006,03,20,03,33,0.30
2006,03,20,03,34,0.30
2006,03,20,03,35,0.30
2006,03,20,03,36,0.40
2006,03,20,03,37,0.30
2006,03,20,03,38,0.30
2006,03,20,03,39,0.30
2006,03,20,03,40,0.30
2006,03,20,03,41,0.30
2006,03,20,03,42,0.20
2006,03,20,03,43,0.20
2006,03,20,03,44,0.20
2006,03,20,03,45,0.20
2006,03,20,03,46,0.20
2006,03,20,03,47,0.20
2006,03,20,03,48,0.10
2006,03,20,03,49,0.10
2006,03,20,03,50,0.10
2006,03,20,03,51,0.10
2006,03,20,03,52,0.10
2006,03,20,03,53,0.10
2006,03,20,03,54,0.00
2006,03,20,03,55,-0.10
2006,03,20,03,56,-0.10
2006,03,20,03,57,-0.10
2006,03,20,03,58,-0.20
2006,03,20,03,59,-0.30
2006,03,20,04,00,-0.40
2006,03,20,04,01,-0.40
2006,03,20,04,02,-0.60
2006,03,20,04,03,-0.60
2006,03,20,04,04,-0.60
2006,03,20,04,05,-0.70
2006,03,20,04,06,-0.70
2006,03,20,04,07,-0.70
2006,03,20,04,08,-0.70
2006,03,20,04,09,-0.70
2006,03,20,04,10,-0.60
2006,03,20,04,11,-0.60
2006,03,20,04,12,-0.60
2006,03,20,04,13,-0.60
2006,03,20,04,14,-0.60
2006,03,20,04,15,-0.60
2006,03,20,04,16,-0.60
2006,03,20,04,17,-0.60
2006,03,20,04,18,-0.60
2006,03,20,04,19,-0.60
2006,03,20,04,20,-0.60
2006,03,20,04,21,-0.60
2006,03,20,04,22,-0.60
2006,03,20,04,23,-0.60
2006,03,20,04,24,-0.60
2006,03,20,04,25,-0.60
2006,03,20,04,26,-0.60
2006,03,20,04,27,-0.60
2006,03,20,04,28,-0.60
2006,03,20,04,29,-0.60
2006,03,20,04,30,-0.70
2006,03,20,04,31,-0.70
2006,03,20,04,32,-0.70
2006,03,20,04,33,-0.70
2006,03,20,04,34,-0.70
2006,03,20,04,35,-0.60
2006,03,20,04,36,-0.60
2006,03,20,04,37,-0.60
2006,03,20,04,38,-0.60
2006,03,20,04,39,-0.60
2006,03,20,04,40,-0.60
2006,03,20,04,41,-0.60
2006,03,20,04,42,-0.60
2006,03,20,04,43,-0.60
2006,03,20,04,44,-0.60
2006,03,20,04,45,-0.60
2006,03,20,04,46,-0.60
2006,03,20,04,47,-0.60
2006,03,20,04,48,-0.60
2006,03,20,04,49,-0.60
2006,03,20,04,50,-0.60
2006,03,20,04,51,-0.60
2006,03,20,04,52,-0.60
2006,03,20,04,53,-0.40
2006,03,20,04,54,-0.40
2006,03,20,04,55,-0.30
2006,03,20,04,56,-0.20
2006,03,20,04,57,-0.10
2006,03,20,04,58,0.10
2006,03,20,04,59,0.20
2006,03,20,05,00,0.30
2006,03,20,05,01,0.40
2006,03,20,05,02,0.40
2006,03,20,05,03,0.50
2006,03,20,05,04,0.60
2006,03,20,05,05,0.70
2006,03,20,05,06,0.80
2006,03,20,05,07,0.90
2006,03,20,05,08,0.90
2006,03,20,05,09,0.90
2006,03,20,05,10,0.90
2006,03,20,05,11,0.90
2006,03,20,05,12,1.00
2006,03,20,05,13,1.00
2006,03,20,05,14,1.10
2006,03,20,05,15,1.10
2006,03,20,05,16,1.20
2006,03,20,05,17,1.20
2006,03,20,05,18,1.30
2006,03,20,05,19,1.30
2006,03,20,05,20,1.30
2006,03,20,05,21,1.20
2006,03,20,05,22,1.20
2006,03,20,05,23,1.10
2006,03,20,05,24,1.00
2006,03,20,05,25,0.90
2006,03,20,05,26,0.80
2006,03,20,05,27,0.70
2006,03,20,05,28,0.60
2006,03,20,05,29,0.50
2006,03,20,05,30,0.40
2006,03,20,05,31,0.40
2006,03,20,05,32,0.30
2006,03,20,05,33,0.20
2006,03,20,05,34,0.10
2006,03,20,05,35,0.10
2006,03,20,05,36,0.10
2006,03,20,05,37,0.00
2006,03,20,05,38,-0.10
2006,03,20,05,39,-0.10
2006,03,20,05,40,-0.20
2006,03,20,05,41,-0.20
2006,03,20,05,42,-0.30
2006,03,20,05,43,-0.40
2006,03,20,05,44,-0.40
2006,03,20,05,45,-0.40
2006,03,20,05,46,-0.40
2006,03,20,05,47,-0.40
2006,03,20,05,48,-0.50
2006,03,20,05,49,-0.60
2006,03,20,05,50,-0.60
2006,03,20,05,51,-0.70
2006,03,20,05,52,-0.80
2006,03,20,05,53,-0.80
2006,03,20,05,54,-0.90
2006,03,20,05,55,-0.90
2006,03,20,05,56,-1.00
2006,03,20,05,57,-1.10
2006,03,20,05,58,-1.10
2006,03,20,05,59,-1.10
2006,03,20,06,00,-1.10
2006,03,20,06,01,-1.10
2006,03,20,06,02,-1.20
2006,03,20,06,03,-1.30
2006,03,20,06,04,-1.30
2006,03,20,06,05,-1.40
2006,03,20,06,06,-1.40
2006,03,20,06,07,-1.40
2006,03,20,06,08,-1.40
2006,03,20,06,09,-1.30
2006,03,20,06,10,-1.30
2006,03,20,06,11,-1.20
2006,03,20,06,12,-1.20
2006,03,20,06,13,-1.10
2006,03,20,06,14,-1.00
2006,03,20,06,15,-0.90
2006,03,20,06,16,-0.90
2006,03,20,06,17,-0.80
2006,03,20,06,18,-0.70
2006,03,20,06,19,-0.70
2006,03,20,06,20,-0.70
2006,03,20,06,21,-0.60
2006,03,20,06,22,-0.60
2006,03,20,06,23,-0.60
2006,03,20,06,24,-0.60
2006,03,20,06,25,-0.60
2006,03,20,06,26,-0.60
2006,03,20,06,27,-0.60
2006,03,20,06,28,-0.60
2006,03,20,06,29,-0.50
2006,03,20,06,30,-0.40
2006,03,20,06,31,-0.40
2006,03,20,06,32,-0.40
2006,03,20,06,33,-0.30
2006,03,20,06,34,-0.30
2006,03,20,06,35,-0.20
2006,03,20,06,36,-0.10
2006,03,20,06,37,-0.10
2006,03,20,06,38,0.00
2006,03,20,06,39,0.10
2006,03,20,06,40,0.10
2006,03,20,06,41,0.20
2006,03,20,06,42,0.30
2006,03,20,06,43,0.40
2006,03,20,06,44,0.50
2006,03,20,06,45,0.60
2006,03,20,06,46,0.80
2006,03,20,06,47,1.00
2006,03,20,06,48,1.20
2006,03,20,06,49,1.50
2006,03,20,06,50,1.70
2006,03,20,06,51,2.00
2006,03,20,06,52,2.10
2006,03,20,06,53,2.30
2006,03,20,06,54,2.40
2006,03,20,06,55,2.60
2006,03,20,06,56,2.70
2006,03,20,06,57,2.80
2006,03,20,06,58,2.90
2006,03,20,06,59,2.90
2006,03,20,07,00,2.80
2006,03,20,07,01,2.70
2006,03,20,07,02,2.70
2006,03,20,07,03,2.70
2006,03,20,07,04,2.70
2006,03,20,07,05,2.70
2006,03,20,07,06,2.70
2006,03,20,07,07,2.60
2006,03,20,07,08,2.50
2006,03,20,07,09,2.50
2006,03,20,07,10,2.50
2006,03,20,07,11,2.50
2006,03,20,07,12,2.50
2006,03,20,07,13,2.60
2006,03,20,07,14,2.70
2006,03,20,07,15,2.70
2006,03,20,07,16,2.70
2006,03,20,07,17,2.80
2006,03,20,07,18,2.90
2006,03,20,07,19,3.00
2006,03,20,07,20,3.10
2006,03,20,07,21,3.20
2006,03,20,07,22,3.20
2006,03,20,07,23,3.30
2006,03,20,07,24,3.40
2006,03,20,07,25,3.40
2006,03,20,07,26,3.50
2006,03,20,07,27,3.60
2006,03,20,07,28,3.70
2006,03,20,07,29,3.80
2006,03,20,07,30,3.80
2006,03,20,07,31,3.90
2006,03,20,07,32,3.90
2006,03,20,07,33,4.00
2006,03,20,07,34,4.00
2006,03,20,07,35,4.00
2006,03,20,07,36,4.00
2006,03,20,07,37,4.00
2006,03,20,07,38,4.10
2006,03,20,07,39,4.10
2006,03,20,07,40,4.10
2006,03,20,07,41,4.10
2006,03,20,07,42,4.20
2006,03,20,07,43,4.20
2006,03,20,07,44,4.20
2006,03,20,07,45,4.20
2006,03,20,07,46,4.20
2006,03,20,07,47,4.30
2006,03,20,07,48,4.30
2006,03,20,07,49,4.40
2006,03,20,07,50,4.40
2006,03,20,07,51,4.50
2006,03,20,07,52,4.50
2006,03,20,07,53,4.50
2006,03,20,07,54,4.50
2006,03,20,07,55,4.60
2006,03,20,07,56,4.60
2006,03,20,07,57,4.70
2006,03,20,07,58,4.70
2006,03,20,07,59,4.80
2006,03,20,08,00,4.90
2006,03,20,08,01,5.00
2006,03,20,08,02,5.10
2006,03,20,08,03,5.10
2006,03,20,08,04,5.20
2006,03,20,08,05,5.20
2006,03,20,08,06,5.30
2006,03,20,08,07,5.30
2006,03,20,08,08,5.40
2006,03,20,08,09,5.50
2006,03,20,08,10,5.60
2006,03,20,08,11,5.70
2006,03,20,08,12,5.70
2006,03,20,08,13,5.80
2006,03,20,08,14,5.90
2006,03,20,08,15,5.90
2006,03,20,08,16,6.00
2006,03,20,08,17,6.10
2006,03,20,08,18,6.20
2006,03,20,08,19,6.20
2006,03,20,08,20,6.30
2006,03,20,08,21,6.30
2006,03,20,08,22,6.40
2006,03,20,08,23,6.40
2006,03,20,08,24,6.60
2006,03,20,08,25,6.60
2006,03,20,08,26,6.70
2006,03,20,08,27,6.80
2006,03,20,08,28,6.80
2006,03,20,08,29,6.90
2006,03,20,08,30,7.00
2006,03,20,08,31,7.10
2006,03,20,08,32,7.20
2006,03,20,08,33,7.30
2006,03,20,08,34,7.30
2006,03,20,08,35,7.30
2006,03,20,08,36,7.40
2006,03,20,08,37,7.50
2006,03,20,08,38,7.50
2006,03,20,08,39,7.60
2006,03,20,08,40,7.60
2006,03,20,08,41,7.70
2006,03,20,08,42,7.80
2006,03,20,08,43,7.80
2006,03,20,08,44,7.80
2006,03,20,08,45,7.90
2006,03,20,08,46,7.90
2006,03,20,08,47,8.00
2006,03,20,08,48,8.00
2006,03,20,08,49,8.10
2006,03,20,08,50,8.10
2006,03,20,08,51,8.20
2006,03,20,08,52,8.20
2006,03,20,08,53,8.30
2006,03,20,08,54,8.30
2006,03,20,08,55,8.40
2006,03,20,08,56,8.40
2006,03,20,08,57,8.40
2006,03,20,08,58,8.50
2006,03,20,08,59,8.50
2006,03,20,09,00,8.60
2006,03,20,09,01,8.60
2006,03,20,09,02,8.60
2006,03,20,09,03,8.60
2006,03,20,09,04,8.60
2006,03,20,09,05,8.60
2006,03,20,09,06,8.70
2006,03,20,09,07,8.70
2006,03,20,09,08,8.80
2006,03,20,09,09,8.90
2006,03,20,09,10,9.00
2006,03,20,09,11,9.00
2006,03,20,09,12,9.10
2006,03,20,09,13,9.10
2006,03,20,09,14,9.20
2006,03,20,09,15,9.20
2006,03,20,09,16,9.40
2006,03,20,09,17,9.40
2006,03,20,09,18,9.40
2006,03,20,09,19,9.30
2006,03,20,09,20,9.30
2006,03,20,09,21,9.30
2006,03,20,09,22,9.40
2006,03,20,09,23,9.50
2006,03,20,09,24,9.50
2006,03,20,09,25,9.70
2006,03,20,09,26,9.70
2006,03,20,09,27,9.70
2006,03,20,09,28,9.80
2006,03,20,09,29,9.80
2006,03,20,09,30,9.80
2006,03,20,09,31,9.80
2006,03,20,09,32,9.80
2006,03,20,09,33,9.80
2006,03,20,09,34,9.90
2006,03,20,09,35,10.00
2006,03,20,09,36,10.00
2006,03,20,09,37,9.90
2006,03,20,09,38,9.90
2006,03,20,09,39,9.80
2006,03,20,09,40,9.80
2006,03,20,09,41,9.70
2006,03,20,09,42,9.70
2006,03,20,09,43,9.80
2006,03,20,09,44,9.80
2006,03,20,09,45,9.70
2006,03,20,09,46,9.70
2006,03,20,09,47,9.80
2006,03,20,09,48,9.80
2006,03,20,09,49,9.80
2006,03,20,09,50,9.80
2006,03,20,09,51,9.80
2006,03,20,09,52,9.90
2006,03,20,09,53,9.90
2006,03,20,09,54,9.90
2006,03,20,09,55,10.10
2006,03,20,09,56,10.10
2006,03,20,09,57,10.10
2006,03,20,09,58,10.00
2006,03,20,09,59,9.90
2006,03,20,10,00,9.90
2006,03,20,10,01,10.00
2006,03,20,10,02,10.10
2006,03,20,10,03,10.10
2006,03,20,10,04,10.00
2006,03,20,10,05,10.00
2006,03,20,10,06,10.10
2006,03,20,10,07,10.10
2006,03,20,10,08,10.10
2006,03,20,10,09,10.10
2006,03,20,10,10,10.20
2006,03,20,10,11,10.20
2006,03,20,10,12,10.20
2006,03,20,10,13,10.20
2006,03,20,10,14,10.20
2006,03,20,10,15,10.30
2006,03,20,10,16,10.40
2006,03,20,10,17,10.30
2006,03,20,10,18,10.40
2006,03,20,10,19,10.40
2006,03,20,10,20,10.50
2006,03,20,10,21,10.50
2006,03,20,10,22,10.50
2006,03,20,10,23,10.60
2006,03,20,10,24,10.60
2006,03,20,10,25,10.70
2006,03,20,10,26,10.80
2006,03,20,10,27,10.90
2006,03,20,10,28,10.90
2006,03,20,10,29,10.90
2006,03,20,10,30,10.70
2006,03,20,10,31,10.80
2006,03,20,10,32,10.90
2006,03,20,10,33,10.90
2006,03,20,10,34,10.90
2006,03,20,10,35,10.90
2006,03,20,10,36,10.90
2006,03,20,10,37,10.90
2006,03,20,10,38,11.10
2006,03,20,10,39,11.20
2006,03,20,10,40,11.20
2006,03,20,10,41,11.30
2006,03,20,10,42,11.30
2006,03,20,10,43,11.20
2006,03,20,10,44,11.30
2006,03,20,10,45,11.50
2006,03,20,10,46,11.60
2006,03,20,10,47,11.50
2006,03,20,10,48,11.40
2006,03,20,10,49,11.30
2006,03,20,10,50,11.40
2006,03,20,10,51,11.40
2006,03,20,10,52,11.40
2006,03,20,10,53,11.40
2006,03,20,10,54,11.30
2006,03,20,10,55,11.30
2006,03,20,10,56,11.30
2006,03,20,10,57,11.30
2006,03,20,10,58,11.30
2006,03,20,10,59,11.40
2006,03,20,11,00,11.50
2006,03,20,11,01,11.60
2006,03,20,11,02,11.70
2006,03,20,11,03,11.80
2006,03,20,11,04,11.80
2006,03,20,11,05,11.90
2006,03,20,11,06,11.90
2006,03,20,11,07,11.80
2006,03,20,11,08,11.80
2006,03,20,11,09,12.00
2006,03,20,11,10,11.90
2006,03,20,11,11,11.80
2006,03,20,11,12,11.80
2006,03,20,11,13,11.80
2006,03,20,11,14,11.80
2006,03,20,11,15,11.80
2006,03,20,11,16,11.70
2006,03,20,11,17,11.70
2006,03,20,11,18,11.60
2006,03,20,11,19,11.60
2006,03,20,11,20,11.60
2006,03,20,11,21,11.60
2006,03,20,11,22,11.60
2006,03,20,11,23,11.60
2006,03,20,11,24,11.60
2006,03,20,11,25,11.70
2006,03,20,11,26,11.60
2006,03,20,11,27,11.40
2006,03,20,11,28,11.40
2006,03,20,11,29,11.40
2006,03,20,11,30,11.50
2006,03,20,11,31,11.60
2006,03,20,11,32,11.60
2006,03,20,11,33,11.70
2006,03,20,11,34,11.80
2006,03,20,11,35,11.80
2006,03,20,11,36,11.70
2006,03,20,11,37,11.50
2006,03,20,11,38,11.50
2006,03,20,11,39,11.60
2006,03,20,11,40,11.70
2006,03,20,11,41,11.70
2006,03,20,11,42,11.70
2006,03,20,11,43,11.70
2006,03,20,11,44,11.80
2006,03,20,11,45,12.00
2006,03,20,11,46,12.00
2006,03,20,11,47,12.00
2006,03,20,11,48,12.00
2006,03,20,11,49,12.00
2006,03,20,11,50,12.10
2006,03,20,11,51,12.10
2006,03,20,11,52,12.00
2006,03,20,11,53,12.00
2006,03,20,11,54,12.00
2006,03,20,11,55,12.10
2006,03,20,11,56,12.10
2006,03,20,11,57,12.30
2006,03,20,11,58,12.30
2006,03,20,11,59,12.40
2006,03,20,12,00,12.50
2006,03,20,12,01,12.40
2006,03,20,12,02,12.30
2006,03,20,12,03,12.30
2006,03,20,12,04,12.30
2006,03,20,12,05,12.30
2006,03,20,12,06,12.30
2006,03,20,12,07,12.30
2006,03,20,12,08,12.10
2006,03,20,12,09,12.00
2006,03,20,12,10,12.10
2006,03,20,12,11,12.20
2006,03,20,12,12,12.20
2006,03,20,12,13,12.30
2006,03,20,12,14,12.30
2006,03,20,12,15,12.30
2006,03,20,12,16,12.30
2006,03,20,12,17,12.30
2006,03,20,12,18,12.30
2006,03,20,12,19,12.30
2006,03,20,12,20,12.30
2006,03,20,12,21,12.20
2006,03,20,12,22,12.20
2006,03,20,12,23,12.30
2006,03,20,12,24,12.10
2006,03,20,12,25,12.00
2006,03,20,12,26,12.00
2006,03,20,12,27,12.10
2006,03,20,12,28,12.20
2006,03,20,12,29,12.30
2006,03,20,12,30,12.30
2006,03,20,12,31,12.30
2006,03,20,12,32,12.30
2006,03,20,12,33,12.40
2006,03,20,12,34,12.60
2006,03,20,12,35,12.80
2006,03,20,12,36,12.70
2006,03,20,12,37,12.50
2006,03,20,12,38,12.30
2006,03,20,12,39,12.10
2006,03,20,12,40,12.00
2006,03,20,12,41,12.00
2006,03,20,12,42,12.10
2006,03,20,12,43,12.30
2006,03,20,12,44,12.20
2006,03,20,12,45,12.20
2006,03,20,12,46,12.10
2006,03,20,12,47,12.00
2006,03,20,12,48,12.10
2006,03,20,12,49,12.30
2006,03,20,12,50,12.50
2006,03,20,12,51,12.60
2006,03,20,12,52,12.60
2006,03,20,12,53,12.60
2006,03,20,12,54,12.70
2006,03,20,12,55,12.70
2006,03,20,12,56,12.70
2006,03,20,12,57,12.60
2006,03,20,12,58,12.60
2006,03,20,12,59,12.50
2006,03,20,13,00,12.60
2006,03,20,13,01,12.70
2006,03,20,13,02,12.80
2006,03,20,13,03,12.90
2006,03,20,13,04,12.90
2006,03,20,13,05,13.00
2006,03,20,13,06,12.90
2006,03,20,13,07,12.90
2006,03,20,13,08,13.00
2006,03,20,13,09,13.00
2006,03,20,13,10,13.20
2006,03,20,13,11,13.20
2006,03,20,13,12,13.30
2006,03,20,13,13,13.30
2006,03,20,13,14,13.30
2006,03,20,13,15,13.20
2006,03,20,13,16,13.00
2006,03,20,13,17,13.00
2006,03,20,13,18,13.00
2006,03,20,13,19,13.00
2006,03,20,13,20,13.00
2006,03,20,13,21,13.00
2006,03,20,13,22,13.00
2006,03,20,13,23,13.10
2006,03,20,13,24,13.20
2006,03,20,13,25,13.30
2006,03,20,13,26,13.10
2006,03,20,13,27,12.90
2006,03,20,13,28,12.90
2006,03,20,13,29,12.90
2006,03,20,13,30,12.90
2006,03,20,13,31,12.90
2006,03,20,13,32,12.90
2006,03,20,13,33,12.90
2006,03,20,13,34,13.00
2006,03,20,13,35,13.00
2006,03,20,13,36,13.00
2006,03,20,13,37,13.00
2006,03,20,13,38,13.10
2006,03,20,13,39,13.10
2006,03,20,13,40,13.00
2006,03,20,13,41,12.90
2006,03,20,13,42,12.80
2006,03,20,13,43,12.90
2006,03,20,13,44,13.10
2006,03,20,13,45,13.00
2006,03,20,13,46,13.00
2006,03,20,13,47,12.80
2006,03,20,13,48,12.70
2006,03,20,13,49,12.70
2006,03,20,13,50,12.70
2006,03,20,13,51,12.60
2006,03,20,13,52,12.60
2006,03,20,13,53,12.80
2006,03,20,13,54,12.80
2006,03,20,13,55,12.70
2006,03,20,13,56,12.70
2006,03,20,13,57,12.90
2006,03,20,13,58,13.10
2006,03,20,13,59,13.30
2006,03,20,14,00,13.10
2006,03,20,14,01,12.90
2006,03,20,14,02,13.10
2006,03,20,14,03,13.20
2006,03,20,14,04,13.30
2006,03,20,14,05,13.00
2006,03,20,14,06,12.50
2006,03,20,14,07,12.20
2006,03,20,14,08,12.00
2006,03,20,14,09,11.80
2006,03,20,14,10,11.50
2006,03,20,14,11,11.60
2006,03,20,14,12,11.60
2006,03,20,14,13,11.70
2006,03,20,14,14,11.80
2006,03,20,14,15,12.00
2006,03,20,14,16,12.20
2006,03,20,14,17,12.30
2006,03,20,14,18,12.50
2006,03,20,14,19,12.50
2006,03,20,14,20,12.50
2006,03,20,14,21,12.40
2006,03,20,14,22,12.40
2006,03,20,14,23,12.30
2006,03,20,14,24,12.30
2006,03,20,14,25,12.30
2006,03,20,14,26,12.30
2006,03,20,14,27,12.30
2006,03,20,14,28,12.40
2006,03,20,14,29,12.50
2006,03,20,14,30,12.50
2006,03,20,14,31,12.60
2006,03,20,14,32,12.60
2006,03,20,14,33,12.60
2006,03,20,14,34,12.50
2006,03,20,14,35,12.30
2006,03,20,14,36,12.30
2006,03,20,14,37,12.30
2006,03,20,14,38,12.40
2006,03,20,14,39,12.30
2006,03,20,14,40,12.30
2006,03,20,14,41,12.40
2006,03,20,14,42,12.40
2006,03,20,14,43,12.50
2006,03,20,14,44,12.50
2006,03,20,14,45,12.60
2006,03,20,14,46,12.50
2006,03,20,14,47,12.60
2006,03,20,14,48,12.70
2006,03,20,14,49,12.90
2006,03,20,14,50,13.00
2006,03,20,14,51,13.00
2006,03,20,14,52,12.90
2006,03,20,14,53,12.90
2006,03,20,14,54,12.90
2006,03,20,14,55,12.90
2006,03,20,14,56,13.00
2006,03,20,14,57,13.20
2006,03,20,14,58,13.30
2006,03,20,14,59,13.30
2006,03,20,15,00,13.20
2006,03,20,15,01,13.20
2006,03,20,15,02,13.30
2006,03,20,15,03,13.30
2006,03,20,15,04,13.40
2006,03,20,15,05,13.30
2006,03,20,15,06,13.20
2006,03,20,15,07,13.00
2006,03,20,15,08,12.90
2006,03,20,15,09,12.70
2006,03,20,15,10,12.40
2006,03,20,15,11,12.30
2006,03,20,15,12,12.20
2006,03,20,15,13,12.00
2006,03,20,15,14,12.00
2006,03,20,15,15,11.90
2006,03,20,15,16,12.00
2006,03,20,15,17,12.20
2006,03,20,15,18,12.30
2006,03,20,15,19,12.50
2006,03,20,15,20,12.70
2006,03,20,15,21,12.80
2006,03,20,15,22,12.90
2006,03,20,15,23,13.00
2006,03,20,15,24,13.10
2006,03,20,15,25,13.20
2006,03,20,15,26,13.30
2006,03,20,15,27,13.40
2006,03,20,15,28,13.50
2006,03,20,15,29,13.30
2006,03,20,15,30,13.10
2006,03,20,15,31,13.00
2006,03,20,15,32,12.80
2006,03,20,15,33,12.80
2006,03,20,15,34,12.60
2006,03,20,15,35,12.40
2006,03,20,15,36,12.30
2006,03,20,15,37,12.20
2006,03,20,15,38,12.10
2006,03,20,15,39,12.00
2006,03,20,15,40,11.80
2006,03,20,15,41,11.70
2006,03,20,15,42,11.60
2006,03,20,15,43,11.50
2006,03,20,15,44,11.40
2006,03,20,15,45,11.30
2006,03,20,15,46,11.30
2006,03,20,15,47,11.30
2006,03,20,15,48,11.40
2006,03,20,15,49,11.40
2006,03,20,15,50,11.40
2006,03,20,15,51,11.40
2006,03,20,15,52,11.30
2006,03,20,15,53,11.20
2006,03,20,15,54,11.00
2006,03,20,15,55,10.90
2006,03,20,15,56,10.80
2006,03,20,15,57,10.70
2006,03,20,15,58,10.60
2006,03,20,15,59,10.70
2006,03,20,16,00,10.70
2006,03,20,16,01,10.70
2006,03,20,16,02,10.70
2006,03,20,16,03,10.70
2006,03,20,16,04,10.70
2006,03,20,16,05,10.60
2006,03,20,16,06,10.60
2006,03,20,16,07,10.60
2006,03,20,16,08,10.60
2006,03,20,16,09,10.50
2006,03,20,16,10,10.40
2006,03,20,16,11,10.40
2006,03,20,16,12,10.40
2006,03,20,16,13,10.40
2006,03,20,16,14,10.40
2006,03,20,16,15,10.40
2006,03,20,16,16,10.40
2006,03,20,16,17,10.30
2006,03,20,16,18,10.30
2006,03,20,16,19,10.20
2006,03,20,16,20,10.30
2006,03,20,16,21,10.30
2006,03,20,16,22,10.30
2006,03,20,16,23,10.30
2006,03,20,16,24,10.20
2006,03,20,16,25,10.10
2006,03,20,16,26,10.10
2006,03,20,16,27,10.10
2006,03,20,16,28,10.10
2006,03,20,16,29,10.10
2006,03,20,16,30,10.20
2006,03,20,16,31,10.20
2006,03,20,16,32,10.10
2006,03,20,16,33,10.20
2006,03,20,16,34,10.30
2006,03,20,16,35,10.30
2006,03,20,16,36,10.20
2006,03,20,16,37,10.10
2006,03,20,16,38,10.00
2006,03,20,16,39,9.90
2006,03,20,16,40,9.90
2006,03,20,16,41,9.90
2006,03,20,16,42,9.90
2006,03,20,16,43,9.80
2006,03,20,16,44,9.70
2006,03,20,16,45,9.60
2006,03,20,16,46,9.50
2006,03,20,16,47,9.40
2006,03,20,16,48,9.40
2006,03,20,16,49,9.30
2006,03,20,16,50,9.20
2006,03,20,16,51,9.10
2006,03,20,16,52,9.00
2006,03,20,16,53,9.00
2006,03,20,16,54,8.90
2006,03,20,16,55,8.90
2006,03,20,16,56,8.80
2006,03,20,16,57,8.80
2006,03,20,16,58,8.80
2006,03,20,16,59,8.80
2006,03,20,17,00,8.80
2006,03,20,17,01,8.70
2006,03,20,17,02,8.70
2006,03,20,17,03,8.70
2006,03,20,17,04,8.70
2006,03,20,17,05,8.70
2006,03,20,17,06,8.70
2006,03,20,17,07,8.70
2006,03,20,17,08,8.70
2006,03,20,17,09,8.70
2006,03,20,17,10,8.70
2006,03,20,17,11,8.70
2006,03,20,17,12,8.70
2006,03,20,17,13,8.70
2006,03,20,17,14,8.70
2006,03,20,17,15,8.70
2006,03,20,17,16,8.70
2006,03,20,17,17,8.70
2006,03,20,17,18,8.70
2006,03,20,17,19,8.70
2006,03,20,17,20,8.70
2006,03,20,17,21,8.70
2006,03,20,17,22,8.70
2006,03,20,17,23,8.70
2006,03,20,17,24,8.70
2006,03,20,17,25,8.70
2006,03,20,17,26,8.70
2006,03,20,17,27,8.70
2006,03,20,17,28,8.70
2006,03,20,17,29,8.70
2006,03,20,17,30,8.70
2006,03,20,17,31,8.70
2006,03,20,17,32,8.70
2006,03,20,17,33,8.70
2006,03,20,17,34,8.70
2006,03,20,17,35,8.70
2006,03,20,17,36,8.70
2006,03,20,17,37,8.70
2006,03,20,17,38,8.70
2006,03,20,17,39,8.60
2006,03,20,17,40,8.60
2006,03,20,17,41,8.50
2006,03,20,17,42,8.50